Regional Weather Roundup
Issued by NWS New Orleans/Baton Rouge, LA

Home | Current Version | Previous Version | Text Only | Print | Product List | Glossary On
Versions: 1 2 3 4 5 6 7 8 9 10 11 12 13 14 15 16 17 18 19 20 21 22 23 24 25 26 27 28 29 30 31 32 33 34 35 36 37 38 39 40 41 42 43 44 45 46 47 48 49 50
580
ASUS44 KLIX 180001
RWRLIX
NEW ORLEANS REGIONAL WEATHER ROUNDUP
NATIONAL WEATHER SERVICE NEW ORLEANS LA
700 PM CDT THU APR 17 2014

NOTE: "FAIR" INDICATES FEW OR NO CLOUDS BELOW 12,000 FEET WITH NO
      SIGNIFICANT WEATHER AND/OR OBSTRUCTIONS TO VISIBILITY.
      SKY/WX - SKY CONDITION AND SIGNIFICANT WEATHER.
      TMP - AIR TEMPERATURE.     DP    - DEWPOINT TEMPERATURE.
      RH  - RELATIVE HUMIDITY.   PRES  - PRESSURE.
      HI  - HEAT INDEX.          WCI   - WIND CHILL INDEX.

*  THESE STATIONS ARE NOT NWS OR FAA STATIONS AND ARE NOT UNDER
   NWS QUALITY CONTROL.

LAZ038-040-048-061>063-065>067-069-180100-
SOUTHEAST LOUISIANA

CITY           SKY/WX    TMP DP  RH WIND       PRES   REMARKS
N.O. AUDUBON     N/A     65  33  30 MISG        N/A
6HR MIN TEMP:  64; 6HR MAX TEMP:  66;

N.O. INTL ARPT CLOUDY    64  59  83 E10       30.14S
6HR MIN TEMP:  64; 6HR MAX TEMP:  66;

N.O. LAKEFRONT CLOUDY    63  59  87 E8        30.16R
6HR MIN TEMP:  62; 6HR MAX TEMP:  64; 6HR PCP:  0.01;

N.O. DOWNTOWN* CLOUDY    63  55  77 NE3       30.15S
6HR MIN TEMP:  63; 6HR MAX TEMP:  64;

SLIDELL        CLOUDY    62  59  90 CALM      30.15R
6HR MIN TEMP:  62; 6HR MAX TEMP:  65; 6HR PCP: TRACE;

BATON ROUGE    CLOUDY    64  57  78 E9        30.12F
6HR MIN TEMP:  64; 6HR MAX TEMP:  67;

BOOTHVILLE     HVY RAIN  63  61  93 E8        30.14R FOG
6HR MIN TEMP:  63; 6HR MAX TEMP:  67; 6HR PCP:  0.23;

BELLE CHASSE   LGT RAIN  63  59  87 E6        30.14R FOG
6HR MIN TEMP:  63; 6HR MAX TEMP:  65;

BOGALUSA*        N/A     66  57  73 CALM      30.17R
6HR MIN TEMP:  66; 6HR MAX TEMP:  68;

GALLIANO*      DRIZZLE   65  62  91 NE13      30.10F
6HR MIN TEMP:  65; 6HR MAX TEMP:  68;

NEW ROADS*     NOT AVBL
GONZALES*      CLOUDY    64  60  89 NE6       30.12F
6HR MIN TEMP:  64; 6HR MAX TEMP:  65;

HAMMOND*       NOT AVBL
HOUMA*         CLOUDY    63  61  94 NE8       30.10F HAZE
PORT FOURCHON* CLOUDY    64  63  94 E17G25    30.10S FOG

$$

MSZ070-080>082-180100-
SOUTHERN MISSISSIPPI

CITY           SKY/WX    TMP DP  RH WIND       PRES   REMARKS
MCCOMB         CLOUDY    63  55  75 MISG      30.16S
6HR MIN TEMP:  63; 6HR MAX TEMP:  65;

GULFPORT       CLOUDY    68  58  70 N3        30.14F
6HR MIN TEMP:  66; 6HR MAX TEMP:  69; 6HR PCP: TRACE;

BILOXI         NOT AVBL
PASCAGOULA     CLOUDY    65  57  75 SE8       30.14F
6HR MIN TEMP:  65; 6HR MAX TEMP:  70; 6HR PCP: TRACE;

STENNIS ARPT*  LGT RAIN  63  57  82 CALM      30.16R

$$

COASTAL OBSERVATIONS
LAKE AND NEARSHORE STATIONS

STATION/POSITION TIME  TEMP    WIND        PRES    WAVE
                       AIR SEA DIR/SP/G            HT/PER
                 (UTC) (F)     (DEG/KT/KT) (MB)    (FT/S)
PASCAGOULA       2300   66     110/ 16/ 20 1020.3
WAVELAND YACHT   2300   64 66   30/  2/  3 1020.3
GRAND ISLE       2300   65 67  100/ 11/ 16 1019.9
SOUTHWEST PASS   2300   65 59   80/ 14/ 16 1020.6
NEW CANAL        2300   63 63   80/  5/  8 1021.1
SHELL BEACH      2300   63 61   90/ 13/ 16 1020.3

OFFSHORE STATIONS

STATION/POSITION TIME  TEMP    WIND        PRES    WAVE
                       AIR SEA DIR/SP/G            HT/PER
                 (UTC) (F)     (DEG/KT/KT) (MB)    (FT/S)

$$




USA.gov is the U.S. government's official web portal to all federal, state and local government web resources and services.